Tracking 34352 objects as of 8-Jun-2026
HD Live streaming from Space Station
objects crossing your sky now

NSS 5 (INTELSAT 803)

Track NSS 5 (INTELSAT 803) now!
NSS 5 (INTELSAT 803) is classified as:


NORAD ID: 24957
Int'l Code: 1997-053A
Perigee: 36,110.2 km
Apogee: 36,138.6 km
Inclination: 10.5 °
Period: 1,453.0 minutes
Semi major axis: 42495 km
RCS: 25.1188 m2 (large)
Launch date: September 23, 1997
Source: Netherlands (NETH)
Launch site: FRENCH GUIANA (FRGUI)

38 C-band, 6 Ku-band; Pacific Ocean region; shared capacity with Intelset.
Your satellite tracking list
Your tracking list is empty




NASA's NSSDC Master Catalog

Two Line Element Set (TLE):
1 24957U 97053A   26159.11725605 -.00000160  00000-0  00000+0 0  9998
2 24957  10.5061  48.0268 0003341 241.6990 305.9766  0.99103704104860
Source of the keplerian elements: AFSPC